Weather Roundup
Issued by NWS Springfield, MO

Home | Current Version | Previous Version | Text Only | Print | Product List | Glossary On
Versions: 1 2 3 4 5 6 7 8 9 10 11 12 13 14 15 16 17 18 19 20 21 22 23 24 25 26 27 28 29 30 31 32 33 34 35 36 37 38 39 40 41 42 43 44 45 46 47 48 49 50
000
NZUS99 KSGF 020207
HRRSGF

HOURLY WEATHER
NATIONAL WEATHER SERVICE SPRINGFIELD MO
900 PM CDT MON SEP 01 2014

......SGF CWA......

CITY           SKY/WX    TMP DP  RH WIND       PRES   REMARKS
SPRINGFIELD    CLOUDY    81  69  67 S14G23    29.85S
JOPLIN         CLOUDY    83  71  67 SW12      29.83R THUNDER
WEST PLAINS    PTCLDY    79  69  71 S8        29.93R
ROLLA          CLOUDY    75  68  78 SE8       29.85F
OSAGE BEACH    CLOUDY    75  70  83 CALM      29.87R
BRANSON        PTCLDY    79  70  73 S7        29.90F

......SURROUNDING SGF CWA......

CITY           SKY/WX    TMP DP  RH WIND       PRES   REMARKS
CHANUTE        LGT RAIN  76  72  87 SE10      29.84R
PARSONS        TSTM      74  71  91 E6G17     29.83F
COFFEYVILLE    CLOUDY    80  72  76 SE10      29.77R
EMPORIA        CLOUDY    73  69  87 NE6       29.85S
GROVE OK       MOCLDY    82  70  65 S13G18    29.85R
ROGERS AR      PTCLDY    80  68  66 SE5       29.91R
HARRISON AR    CLEAR     77  70  79 S9        29.91R
NEAR YELLVILLE CLEAR     81  66  61 SE3       29.91R

......KANSAS AND MISSOURI......

CITY           SKY/WX    TMP DP  RH WIND       PRES   REMARKS
KANSAS CTY INT CLOUDY    73  69  87 CALM      29.86R THUNDER
DOWNTOWN KC    LGT RAIN  77  69  76 NE5       29.85R
COLUMBIA       TSTM      71  70  96 VRB7      29.90R
SEDALIA        LGT RAIN  72  70  93 NE3       29.90R
ST JOSEPH      CLEAR     69  67  93 N3        29.86R
ST LOUIS       CLOUDY    77  70  79 NE10      29.88F
SPIRIT OF STL  CLOUDY    75  70  84 NW20G25   29.89R
KIRKSVILLE     PTCLDY    72  68  87 NW3       29.89R
WICHITA        MOCLDY    78  68  71 NE22      29.84S
TOPEKA         MOCLDY    72  70  93 E5        29.86S
OLATHE         CLOUDY    73  68  84 E5        29.83F

......TENNESSEE......

CITY           SKY/WX    TMP DP  RH WIND       PRES   REMARKS
MEMPHIS        CLEAR     84  72  67 S9        29.97S
NASHVILLE      PTCLDY    80  68  66 S3        30.03R

......ARKANSAS.......

CITY           SKY/WX    TMP DP  RH WIND       PRES   REMARKS
FAYETTEVILLE   CLEAR     79  69  71 S6        29.89R
FT SMITH       CLEAR     85  70  60 CALM      29.86R
LITTLE ROCK    CLEAR     82  72  71 S7        29.92S

......OKLAHOMA.......

CITY           SKY/WX    TMP DP  RH WIND       PRES   REMARKS
TULSA          MOCLDY    88  70  55 S16       29.79R HX  93
PONCA CITY     CLOUDY    91  69  48 S7        29.76R HX  96
MCALESTER      CLEAR     86  68  54 S9G20     29.84R
OKLAHOMA CITY  PTCLDY    88  69  53 S15G23    29.81R HX  92

......IOWA............

CITY           SKY/WX    TMP DP  RH WIND       PRES   REMARKS
DES MOINES     CLOUDY    74  63  68 CALM      29.83F
QUAD CITIES    PTCLDY    72  66  81 W5        29.84R

......ILLINOIS........

CITY           SKY/WX    TMP DP  RH WIND       PRES   REMARKS
QUINCY         CLOUDY    75  69  81 S5        29.88R
CHICAGO        MOCLDY    77  63  61 SW10      29.82R




USA.gov is the U.S. government's official web portal to all federal, state and local government web resources and services.